This demonstration page uses our WeatherBlox Daily Observations layout. Learn more.

Left ArrowRight Arrow

Hourly Observations for February 5, 2016

Temp ( °F °C ) Dew Point ( °F °C ) Humidity (%) Winds ( mph kmh ) Pressure ( in mb ) Visibility ( mi km ) Precip ( " mm )
12:51 am 00:51 Clear 27 -2.8 15 -9.4 61 61 N N/A 30.27 1025 10 16.0934 N/A
1:51 am 01:51 Clear 26 -3.3 15 -9.4 63 63 N N/A 30.27 1025 10 16.0934 N/A
2:51 am 02:51 Clear 28 -2.2 16 -8.9 60 60 N N/A 30.27 1025 10 16.0934 N/A
3:51 am 03:51 Clear 26 -3.3 16 -8.9 66 66 N N/A 30.28 1025 10 16.0934 N/A
4:51 am 04:51 Clear 27 -2.8 15 -9.4 61 61 NW 3 6 30.3 1026 10 16.0934 N/A
5:51 am 05:51 Clear 24 -4.4 15 -9.4 68 68 NE 5 7 30.32 1027 10 16.0934 N/A
6:51 am 06:51 Clear 23 -5 16 -8.9 74 74 E 3 6 30.35 1028 10 16.0934 N/A
7:51 am 07:51 Sunny 27 -2.8 16 -8.9 63 63 N N/A 30.38 1029 10 16.0934 N/A
8:51 am 08:51 Sunny 34 1.1 16 -8.9 48 48 N N/A 30.38 1029 10 16.0934 N/A
9:51 am 09:51 Sunny 40 4.4 16 -8.9 38 38 SW 3 6 30.39 1029 10 16.0934 N/A
10:51 am 10:51 Sunny 45 7.2 15 -9.4 30 30 N N/A 30.39 1029 10 16.0934 N/A
11:51 am 11:51 Sunny 50 10 14 -10 24 24 W 6 9 30.37 1028 10 16.0934 N/A
12:51 pm 12:51 Sunny 54 12.2 15 -9.4 21 21 VRB 5 7 30.33 1027 10 16.0934 N/A
1:51 pm 13:51 Sunny 56 13.3 15 -9.4 20 20 VRB 3 6 30.29 1026 10 16.0934 N/A
2:51 pm 14:51 Sunny 57 13.9 14 -10 18 18 VRB 7 11 30.27 1025 10 16.0934 N/A
3:51 pm 15:51 Sunny 59 15 13 -10.6 16 16 WNW 5 7 30.27 1025 10 16.0934 N/A
4:51 pm 16:51 Sunny 59 15 11 -11.7 15 15 VRB 3 6 30.27 1025 10 16.0934 N/A
5:51 pm 17:51 Sunny 57 13.9 10 -12.2 15 15 N N/A 30.28 1026 10 16.0934 N/A
6:51 pm 18:51 Clear 46 7.8 16 -8.9 30 30 NE 6 9 30.32 1027 10 16.0934 N/A
7:51 pm 19:51 Clear 42 5.6 16 -8.9 35 35 E 8 13 30.34 1027 10 16.0934 N/A
8:51 pm 20:51 Clear 40 4.4 13 -10.6 33 33 E 6 9 30.35 1028 10 16.0934 N/A
9:51 pm 21:51 Clear 38 3.3 13 -10.6 36 36 E 5 7 30.36 1028 10 16.0934 N/A
10:51 pm 22:51 Clear 48 8.9 9 -12.8 20 20 E 13 20 30.35 1028 10 16.0934 N/A
11:51 pm 23:51 Clear 44 6.7 9 -12.8 24 24 ESE 10 17 30.37 1028 10 16.0934 N/A

Powered by AerisWeather